| time (UTC) | temp C | wind direction | speed KPH | gust KPH | rain 1hr cm | rain 24hr cm | rain mn cm | humidity % | barometer mb |
| 20260903010840 | 27 | 230 | 1.6 | 1.6 | 0.00 | 0.00 | 0.00 | 82 | 1018.1 |
| 20260903010335 | 27 | 229 | 0.0 | 1.6 | 0.00 | 0.00 | 0.00 | 82 | 1018.1 |
| 20260903005833 | 27 | 229 | 0.0 | 1.6 | 0.00 | 0.00 | 0.00 | 82 | 1018.0 |
| 20260903005329 | 27 | 220 | 0.0 | 0.0 | 0.00 | 0.00 | 0.00 | 82 | 1018.0 |
| 20260903004825 | 27 | 216 | 0.0 | 0.0 | 0.00 | 0.00 | 0.00 | 82 | 1018.1 |
| 20260903004320 | 27 | 216 | 0.0 | 0.0 | 0.00 | 0.00 | 0.00 | 82 | 1018.1 |
| 20260903003816 | 27 | 219 | 0.0 | 0.0 | 0.00 | 0.00 | 0.00 | 81 | 1018.1 |
| 20260903003310 | 27 | 219 | 0.0 | 0.0 | 0.00 | 0.00 | 0.00 | 81 | 1018.1 |
| 20260903002810 | 28 | 221 | 0.0 | 0.0 | 0.00 | 0.00 | 0.00 | 80 | 1018.1 |
| 20260903002309 | 28 | 221 | 0.0 | 0.0 | 0.00 | 0.00 | 0.00 | 80 | 1018.1 |
| 20260903001805 | 28 | 220 | 0.0 | 0.0 | 0.00 | 0.00 | 0.00 | 79 | 1017.9 |
| 20260903001300 | 28 | 225 | 0.0 | 0.0 | 0.00 | 0.00 | 0.00 | 78 | 1017.9 |
| 20260903000754 | 28 | 220 | 0.0 | 0.0 | 0.00 | 0.00 | 0.00 | 77 | 1017.9 |
| 20260903000249 | 28 | 220 | 0.0 | 0.0 | 0.00 | 0.00 | 0.00 | 77 | 1017.9 |
| 20260902235747 | 29 | 224 | 0.0 | 0.0 | 0.00 | 0.00 | 0.00 | 76 | 1017.7 |
| 20260902235242 | 29 | 225 | 0.0 | 0.0 | 0.00 | 0.00 | 0.00 | 75 | 1017.8 |
| 20260902234742 | 30 | 231 | 0.0 | 0.0 | 0.00 | 0.00 | 0.00 | 74 | 1017.7 |
| 20260902234236 | 30 | 237 | 1.6 | 3.2 | 0.00 | 0.00 | 0.00 | 72 | 1017.7 |
| 20260902233736 | 30 | 227 | 0.0 | 1.6 | 0.00 | 0.00 | 0.00 | 73 | 1017.7 |
| 20260902233230 | 30 | 229 | 1.6 | 1.6 | 0.00 | 0.00 | 0.00 | 71 | 1017.9 |
| 20260902232729 | 30 | 237 | 0.0 | 0.0 | 0.00 | 0.00 | 0.00 | 71 | 1017.8 |
| 20260902232229 | 31 | 251 | 0.0 | 0.0 | 0.00 | 0.00 | 0.00 | 70 | 1017.8 |
| 20260902231728 | 31 | 235 | 1.6 | 3.2 | 0.00 | 0.00 | 0.00 | 70 | 1018.0 |
| 20260902231224 | 31 | 227 | 1.6 | 1.6 | 0.00 | 0.00 | 0.00 | 70 | 1018.0 |
| 20260902230719 | 31 | 235 | 0.0 | 1.6 | 0.00 | 0.00 | 0.00 | 68 | 1018.0 |
| 20260902230217 | 31 | 250 | 1.6 | 3.2 | 0.00 | 0.00 | 0.00 | 69 | 1018.0 |
| 20260902225713 | 31 | 239 | 0.0 | 0.0 | 0.00 | 0.00 | 0.00 | 68 | 1018.0 |
| 20260902225213 | 31 | 225 | 1.6 | 3.2 | 0.00 | 0.00 | 0.00 | 69 | 1018.0 |
| 20260902224711 | 31 | 236 | 0.0 | 1.6 | 0.00 | 0.00 | 0.00 | 67 | 1018.0 |
| 20260902224207 | 31 | 267 | 1.6 | 3.2 | 0.00 | 0.00 | 0.00 | 68 | 1018.0 |
| 20260902223703 | 31 | 236 | 3.2 | 3.2 | 0.00 | 0.00 | 0.00 | 68 | 1018.0 |
| 20260902223202 | 31 | 228 | 4.8 | 4.8 | 0.00 | 0.00 | 0.00 | 66 | |
| 20260902222701 | 31 | 228 | 4.8 | 4.8 | 0.00 | 0.00 | 0.00 | 66 | |
| 20260902222200 | 32 | 238 | 3.2 | 4.8 | 0.00 | 0.00 | 0.00 | 66 | |
| 20260902221649 | 32 | 238 | 3.2 | 4.8 | 0.00 | 0.00 | 0.00 | 66 | |
| 20260902221149 | 32 | 238 | 3.2 | 4.8 | 0.00 | 0.00 | 0.00 | 66 | |
| 20260902220644 | 32 | 258 | 0.0 | 1.6 | 0.00 | 0.00 | 0.00 | 64 | |
| 20260902220139 | 32 | 247 | 1.6 | 1.6 | 0.00 | 0.00 | 0.00 | 64 | 1018.2 |
| 20260902215635 | 32 | 247 | 1.6 | 1.6 | 0.00 | 0.00 | 0.00 | 64 | 1018.2 |
| 20260902215130 | 32 | 236 | 0.0 | 0.0 | 0.00 | 0.00 | 0.00 | 64 | 1018.2 |
| 20260902214625 | 32 | 236 | 0.0 | 0.0 | 0.00 | 0.00 | 0.00 | 64 | 1018.2 |
| 20260902214124 | 32 | 236 | 0.0 | 0.0 | 0.00 | 0.00 | 0.00 | 64 | 1018.2 |
| 20260902213620 | 32 | 236 | 0.0 | 0.0 | 0.00 | 0.00 | 0.00 | 64 | 1018.2 |
| 20260902213119 | 32 | 287 | 1.6 | 3.2 | 0.00 | 0.00 | 0.00 | 63 | 1018.2 |
| 20260902212615 | 32 | 287 | 1.6 | 3.2 | 0.00 | 0.00 | 0.00 | 63 | 1018.2 |
| 20260902212111 | 32 | 234 | 0.0 | 1.6 | 0.00 | 0.00 | 0.00 | 63 | 1018.2 |
| 20260902211607 | 32 | 234 | 0.0 | 1.6 | 0.00 | 0.00 | 0.00 | 63 | 1018.2 |
| 20260902211102 | 32 | 234 | 0.0 | 1.6 | 0.00 | 0.00 | 0.00 | 63 | 1018.2 |
| 20260902210556 | 34 | 278 | 4.8 | 4.8 | 0.00 | 0.00 | 0.00 | 57 | 1018.2 |
| 20260902210055 | 34 | 278 | 4.8 | 4.8 | 0.00 | 0.00 | 0.00 | 57 | |
| 20260902205555 | 34 | 278 | 4.8 | 4.8 | 0.00 | 0.00 | 0.00 | 57 | |
| 20260902205051 | 34 | 278 | 4.8 | 4.8 | 0.00 | 0.00 | 0.00 | 57 | |
| 20260902204545 | 34 | 278 | 4.8 | 4.8 | 0.00 | 0.00 | 0.00 | 57 | |
| 20260902204040 | 34 | 278 | 4.8 | 4.8 | 0.00 | 0.00 | 0.00 | 57 | |
| 20260902203535 | 34 | 278 | 4.8 | 4.8 | 0.00 | 0.00 | 0.00 | 57 | |
| 20260902203034 | 33 | 249 | 1.6 | 1.6 | 0.00 | 0.00 | 0.00 | 59 | 1019.4 |
| 20260902202530 | 33 | 270 | 1.6 | 1.6 | 0.00 | 0.00 | 0.00 | 59 | 1019.4 |
| 20260902202027 | 33 | 270 | 1.6 | 1.6 | 0.00 | 0.00 | 0.00 | 59 | 1019.4 |
| 20260902201522 | 33 | 270 | 1.6 | 1.6 | 0.00 | 0.00 | 0.00 | 59 | 1019.4 |
| 20260902201021 | 33 | 270 | 1.6 | 1.6 | 0.00 | 0.00 | 0.00 | 59 | 1019.4 |
| 20260902200516 | 33 | 270 | 1.6 | 1.6 | 0.00 | 0.00 | 0.00 | 59 | 1019.4 |
| 20260902200012 | 33 | 270 | 1.6 | 1.6 | 0.00 | 0.00 | 0.00 | 59 | 1019.4 |
| 20260902195508 | 33 | 270 | 1.6 | 1.6 | 0.00 | 0.00 | 0.00 | 59 | 1019.4 |
| 20260902195007 | 33 | 270 | 1.6 | 1.6 | 0.00 | 0.00 | 0.00 | 59 | 1019.4 |
| 20260902194501 | 34 | 265 | 3.2 | 3.2 | 0.00 | 0.00 | 0.00 | 58 | 1019.4 |
| 20260902193956 | 34 | 265 | 3.2 | 3.2 | 0.00 | 0.00 | 0.00 | 58 | 1019.4 |
| 20260902193452 | 34 | 265 | 3.2 | 3.2 | 0.00 | 0.00 | 0.00 | 58 | 1019.4 |
| 20260902192950 | 34 | 252 | 0.0 | 0.0 | 0.00 | 0.00 | 0.00 | 59 | 1019.5 |
| 20260902192450 | 34 | 268 | 1.6 | 3.2 | 0.00 | 0.00 | 0.00 | 57 | 1019.5 |
| 20260902191949 | 34 | 268 | 1.6 | 3.2 | 0.00 | 0.00 | 0.00 | 57 | 1019.5 |
| 20260902191444 | 33 | 261 | 0.0 | 1.6 | 0.00 | 0.00 | 0.00 | 59 | 1019.5 |
| 20260902190939 | 33 | 261 | 0.0 | 1.6 | 0.00 | 0.00 | 0.00 | 59 | 1019.5 |
| 20260902190435 | 33 | 261 | 0.0 | 1.6 | 0.00 | 0.00 | 0.00 | 59 | 1019.5 |
| 20260902185930 | 33 | 261 | 0.0 | 1.6 | 0.00 | 0.00 | 0.00 | 59 | 1019.5 |
| 20260902185426 | 33 | 269 | 1.6 | 1.6 | 0.00 | 0.00 | 0.00 | 57 | 1019.5 |
| 20260902184921 | 33 | 231 | 1.6 | 1.6 | 0.00 | 0.00 | 0.00 | 63 | 1019.5 |
| 20260902184416 | 33 | 231 | 1.6 | 1.6 | 0.00 | 0.00 | 0.00 | 63 | 1019.8 |
| 20260902183912 | 33 | 237 | 0.0 | 0.0 | 0.00 | 0.00 | 0.00 | 59 | 1019.8 |
| 20260902183408 | 33 | 255 | 4.8 | 8.0 | 0.00 | 0.00 | 0.00 | 60 | 1019.8 |
| 20260902182904 | 33 | 272 | 3.2 | 3.2 | 0.00 | 0.00 | 0.00 | 59 | 1019.8 |
| 20260902182400 | 33 | 267 | 3.2 | 4.8 | 0.00 | 0.00 | 0.00 | 60 | 1019.8 |
| 20260902181856 | 33 | 269 | 4.8 | 8.0 | 0.00 | 0.00 | 0.00 | 61 | 1019.8 |
| 20260902181352 | 33 | 278 | 3.2 | 4.8 | 0.00 | 0.00 | 0.00 | 60 | 1019.8 |
| 20260902180851 | 33 | 257 | 3.2 | 3.2 | 0.00 | 0.00 | 0.00 | 59 | 1019.8 |
| 20260902180347 | 33 | 268 | 3.2 | 4.8 | 0.00 | 0.00 | 0.00 | 59 | 1019.9 |
| 20260902175842 | 33 | 271 | 4.8 | 4.8 | 0.00 | 0.00 | 0.00 | 59 | 1019.9 |
| 20260902175337 | 33 | 277 | 4.8 | 8.0 | 0.00 | 0.00 | 0.00 | 59 | 1019.9 |
| 20260902174832 | 33 | 258 | 3.2 | 4.8 | 0.00 | 0.00 | 0.00 | 60 | 1019.8 |
| 20260902174329 | 33 | 241 | 0.0 | 1.6 | 0.00 | 0.00 | 0.00 | 62 | 1019.8 |
| 20260902173819 | 33 | 275 | 4.8 | 8.0 | 0.00 | 0.00 | 0.00 | 61 | 1020.0 |
| 20260902173319 | 33 | 271 | 1.6 | 3.2 | 0.00 | 0.00 | 0.00 | 60 | 1020.1 |
| 20260902172813 | 33 | 246 | 1.6 | 3.2 | 0.00 | 0.00 | 0.00 | 60 | 1020.6 |
| 20260902172308 | 33 | 235 | 0.0 | 0.0 | 0.00 | 0.00 | 0.00 | 61 | 1020.6 |
| 20260902171802 | 33 | 250 | 0.0 | 1.6 | 0.00 | 0.00 | 0.00 | 61 | 1020.6 |
| 20260902171257 | 33 | 274 | 1.6 | 3.2 | 0.00 | 0.00 | 0.00 | 60 | 1020.6 |
| 20260902170754 | 33 | 277 | 4.8 | 4.8 | 0.00 | 0.00 | 0.00 | 60 | 1020.6 |
| 20260902170249 | 33 | 267 | 3.2 | 3.2 | 0.00 | 0.00 | 0.00 | 63 | 1020.6 |
| 20260902165744 | 33 | 286 | 1.6 | 1.6 | 0.00 | 0.00 | 0.00 | 63 | 1020.6 |
| 20260902165243 | 33 | 248 | 0.0 | 3.2 | 0.00 | 0.00 | 0.00 | 62 | 1020.6 |
| 20260902164738 | 32 | 255 | 1.6 | 3.2 | 0.00 | 0.00 | 0.00 | 64 | 1020.6 |
| 20260902164233 | 32 | 265 | 1.6 | 1.6 | 0.00 | 0.00 | 0.00 | 65 | 1020.6 |
| 20260902163728 | 32 | 265 | 0.0 | 1.6 | 0.00 | 0.00 | 0.00 | 63 | 1020.6 |
| 20260902163227 | 32 | 254 | 3.2 | 3.2 | 0.00 | 0.00 | 0.00 | 63 | 1020.6 |
| 20260902162726 | 32 | 276 | 6.4 | 9.7 | 0.00 | 0.00 | 0.00 | 63 | 1020.6 |
| 20260902162221 | 32 | 277 | 1.6 | 4.8 | 0.00 | 0.00 | 0.00 | 62 | 1020.6 |
| 20260902161716 | 32 | 253 | 1.6 | 3.2 | 0.00 | 0.00 | 0.00 | 63 | 1020.6 |
| 20260902161211 | 32 | 253 | 0.0 | 0.0 | 0.00 | 0.00 | 0.00 | 65 | 1020.6 |
| 20260902160709 | 32 | 238 | 1.6 | 3.2 | 0.00 | 0.00 | 0.00 | 65 | 1020.6 |
| 20260902160202 | 32 | 238 | 1.6 | 3.2 | 0.00 | 0.00 | 0.00 | 65 | 1020.6 |
| 20260902155701 | 32 | 277 | 1.6 | 3.2 | 0.00 | 0.00 | 0.00 | 67 | 1020.6 |
| 20260902155159 | 32 | 261 | 3.2 | 3.2 | 0.00 | 0.00 | 0.00 | 66 | 1020.6 |
| 20260902154654 | 32 | 245 | 0.0 | 0.0 | 0.00 | 0.00 | 0.00 | 68 | 1020.6 |
| 20260902154148 | 32 | 268 | 1.6 | 3.2 | 0.00 | 0.00 | 0.00 | 66 | 1020.6 |
| 20260902153643 | 32 | 237 | 1.6 | 3.2 | 0.00 | 0.00 | 0.00 | 68 | 1020.6 |
| 20260902153138 | 32 | 241 | 1.6 | 3.2 | 0.00 | 0.00 | 0.00 | 68 | 1020.6 |
| 20260902152634 | 32 | 266 | 1.6 | 1.6 | 0.00 | 0.00 | 0.00 | 68 | 1020.5 |
| 20260902152129 | 31 | 242 | 0.0 | 1.6 | 0.00 | 0.00 | 0.00 | 68 | 1020.4 |
| 20260902151625 | 31 | 269 | 3.2 | 3.2 | 0.00 | 0.00 | 0.00 | 68 | 1020.4 |
| 20260902151119 | 31 | 245 | 1.6 | 3.2 | 0.00 | 0.00 | 0.00 | 68 | 1020.4 |
| 20260902150614 | 31 | 276 | 3.2 | 3.2 | 0.00 | 0.00 | 0.00 | 68 | 1020.6 |
| 20260902150110 | 31 | 250 | 0.0 | 0.0 | 0.00 | 0.00 | 0.00 | 70 | 1020.6 |
| 20260902145604 | 30 | 268 | 1.6 | 3.2 | 0.00 | 0.00 | 0.00 | 69 | 1020.6 |
| 20260902145103 | 30 | 268 | 1.6 | 3.2 | 0.00 | 0.00 | 0.00 | 69 | 1020.7 |
| 20260902144600 | 30 | 259 | 1.6 | 3.2 | 0.00 | 0.00 | 0.00 | 71 | 1020.7 |
| 20260902144055 | 30 | 271 | 1.6 | 1.6 | 0.00 | 0.00 | 0.00 | 71 | 1020.5 |
| 20260902143550 | 30 | 287 | 3.2 | 4.8 | 0.00 | 0.00 | 0.00 | 71 | 1020.5 |
| 20260902143046 | 30 | 297 | 4.8 | 9.7 | 0.00 | 0.00 | 0.00 | 72 | 1020.5 |
| 20260902142543 | 30 | 273 | 4.8 | 4.8 | 0.00 | 0.00 | 0.00 | 72 | 1020.5 |
| 20260902142036 | 30 | 261 | 1.6 | 1.6 | 0.00 | 0.00 | 0.00 | 71 | 1020.4 |
| 20260902141536 | 30 | 270 | 1.6 | 1.6 | 0.00 | 0.00 | 0.00 | 73 | 1020.4 |
| 20260902141031 | 30 | 267 | 1.6 | 1.6 | 0.00 | 0.00 | 0.00 | 74 | 1020.6 |
| 20260902140526 | 29 | 239 | 1.6 | 3.2 | 0.00 | 0.00 | 0.00 | 75 | |
| 20260902140021 | 29 | 283 | 1.6 | 3.2 | 0.00 | 0.00 | 0.00 | 76 | |
| 20260902135520 | 28 | 241 | 1.6 | 3.2 | 0.00 | 0.00 | 0.00 | 76 | |
| 20260902135016 | 28 | 268 | 3.2 | 3.2 | 0.00 | 0.00 | 0.00 | 76 | |
| 20260902134511 | 28 | 273 | 1.6 | 1.6 | 0.00 | 0.00 | 0.00 | 77 | |
| 20260902134006 | 28 | 241 | 1.6 | 3.2 | 0.00 | 0.00 | 0.00 | 77 | |
| 20260902133501 | 28 | 237 | 0.0 | 3.2 | 0.00 | 0.00 | 0.00 | 77 | |
| 20260902132955 | 28 | 256 | 1.6 | 1.6 | 0.00 | 0.00 | 0.00 | 77 | |
| 20260902132451 | 27 | 272 | 1.6 | 1.6 | 0.00 | 0.00 | 0.00 | 78 | |
| 20260902131945 | 27 | 249 | 1.6 | 3.2 | 0.00 | 0.00 | 0.00 | 79 | |
| 20260902131442 | 27 | 266 | 1.6 | 1.6 | 0.00 | 0.00 | 0.00 | 78 | |
| 20260902130941 | 27 | 250 | 0.0 | 1.6 | 0.00 | 0.00 | 0.00 | 81 | 1020.5 |
| 20260902130437 | 27 | 250 | 0.0 | 1.6 | 0.00 | 0.00 | 0.00 | 81 | 1020.5 |
| 20260902125932 | 27 | 250 | 0.0 | 1.6 | 0.00 | 0.00 | 0.00 | 81 | 1020.5 |
| 20260902125428 | 26 | 236 | 0.0 | 0.0 | 0.00 | 0.00 | 0.00 | 82 | 1020.5 |
| 20260902124924 | 26 | 242 | 0.0 | 1.6 | 0.00 | 0.00 | 0.00 | 82 | 1020.5 |
| 20260902124419 | 26 | 243 | 0.0 | 0.0 | 0.00 | 0.00 | 0.00 | 83 | 1020.5 |
| 20260902123914 | 26 | 265 | 1.6 | 1.6 | 0.00 | 0.00 | 0.00 | 83 | 1020.5 |
| 20260902123411 | 26 | 233 | 0.0 | 0.0 | 0.00 | 0.00 | 0.00 | 83 | 1020.5 |
| 20260902122909 | 26 | 237 | 0.0 | 0.0 | 0.00 | 0.00 | 0.00 | 83 | 1020.5 |
| 20260902122405 | 25 | 228 | 0.0 | 0.0 | 0.00 | 0.00 | 0.00 | 85 | 1020.5 |
| 20260902121900 | 25 | 227 | 0.0 | 0.0 | 0.00 | 0.00 | 0.00 | 87 | 1020.5 |
| 20260902121355 | 24 | 219 | 0.0 | 0.0 | 0.00 | 0.00 | 0.00 | 89 | 1020.5 |
| 20260902120850 | 24 | 212 | 0.0 | 0.0 | 0.00 | 0.00 | 0.00 | 90 | 1020.0 |
| 20260902120346 | 22 | 182 | 1.6 | 1.6 | 0.00 | 0.00 | 0.00 | 95 | 1020.0 |
| 20260902115840 | 22 | 182 | 1.6 | 1.6 | 0.00 | 0.00 | 0.00 | 95 | 1020.0 |
| 20260902115337 | 22 | 182 | 1.6 | 1.6 | 0.00 | 0.00 | 0.00 | 95 | 1020.0 |
| 20260902114833 | 22 | 182 | 1.6 | 1.6 | 0.00 | 0.00 | 0.00 | 95 | 1020.0 |
| 20260902114329 | 22 | 182 | 1.6 | 1.6 | 0.00 | 0.00 | 0.00 | 95 | 1020.0 |
| 20260902113828 | 22 | 211 | 0.0 | 0.0 | 0.00 | 0.00 | 0.00 | 96 | 1019.9 |
| 20260902113323 | 22 | 209 | 0.0 | 0.0 | 0.00 | 0.00 | 0.00 | 96 | 1019.8 |
| 20260902112818 | 21 | 202 | 1.6 | 1.6 | 0.00 | 0.00 | 0.00 | 96 | 1019.9 |
| 20260902112314 | 21 | 218 | 0.0 | 0.0 | 0.00 | 0.00 | 0.00 | 96 | 1019.8 |
| 20260902111809 | 21 | 210 | 0.0 | 0.0 | 0.00 | 0.00 | 0.00 | 96 | 1019.8 |
| 20260902111305 | 22 | 217 | 0.0 | 0.0 | 0.00 | 0.00 | 0.00 | 96 | 1019.8 |
| 20260902110801 | 22 | 217 | 0.0 | 0.0 | 0.00 | 0.00 | 0.00 | 96 | 1019.6 |
| 20260902110256 | 22 | 218 | 0.0 | 0.0 | 0.00 | 0.00 | 0.00 | 95 | 1019.7 |
| 20260902105756 | 22 | 211 | 0.0 | 0.0 | 0.00 | 0.00 | 0.00 | 95 | 1019.5 |
| 20260902105251 | 22 | 209 | 0.0 | 0.0 | 0.00 | 0.00 | 0.00 | 95 | 1019.6 |
| 20260902104747 | 22 | 210 | 0.0 | 0.0 | 0.00 | 0.00 | 0.00 | 95 | 1019.6 |
| 20260902104243 | 22 | 209 | 0.0 | 0.0 | 0.00 | 0.00 | 0.00 | 95 | 1019.6 |
| 20260902103742 | 22 | 232 | 0.0 | 0.0 | 0.00 | 0.00 | 0.00 | 95 | 1019.6 |
| 20260902103237 | 22 | 220 | 0.0 | 0.0 | 0.00 | 0.00 | 0.00 | 95 | 1019.7 |
| 20260902102733 | 22 | 229 | 0.0 | 0.0 | 0.00 | 0.00 | 0.00 | 95 | 1019.6 |
| 20260902102231 | 22 | 220 | 0.0 | 0.0 | 0.00 | 0.00 | 0.00 | 95 | 1019.6 |
| 20260902101725 | 22 | 231 | 0.0 | 0.0 | 0.00 | 0.00 | 0.00 | 94 | 1019.8 |
| 20260902101220 | 22 | 227 | 0.0 | 0.0 | 0.00 | 0.00 | 0.00 | 94 | 1019.4 |
| 20260902100719 | 22 | 224 | 0.0 | 0.0 | 0.00 | 0.00 | 0.00 | 94 | 1019.5 |
| 20260902100214 | 22 | 211 | 0.0 | 0.0 | 0.00 | 0.00 | 0.00 | 94 | 1019.5 |
| 20260902095714 | 22 | 211 | 0.0 | 0.0 | 0.00 | 0.00 | 0.00 | 94 | 1019.7 |
| 20260902095208 | 22 | 211 | 0.0 | 0.0 | 0.00 | 0.00 | 0.00 | 94 | 1019.5 |
| 20260902094703 | 22 | 211 | 0.0 | 0.0 | 0.00 | 0.00 | 0.00 | 94 | 1019.5 |
| 20260902094200 | 22 | 211 | 0.0 | 0.0 | 0.00 | 0.00 | 0.00 | 94 | 1019.5 |
| 20260902093658 | 22 | 211 | 0.0 | 0.0 | 0.00 | 0.00 | 0.00 | 94 | 1019.6 |
| 20260902093154 | 22 | 211 | 0.0 | 0.0 | 0.00 | 0.00 | 0.00 | 93 | 1019.6 |
| 20260902092648 | 22 | 211 | 0.0 | 0.0 | 0.00 | 0.00 | 0.00 | 93 | 1019.6 |
| 20260902092143 | 22 | 211 | 0.0 | 0.0 | 0.00 | 0.00 | 0.00 | 93 | 1019.6 |
| 20260902091638 | 22 | 211 | 0.0 | 0.0 | 0.00 | 0.00 | 0.00 | 92 | 1019.6 |
| 20260902091134 | 23 | 211 | 0.0 | 0.0 | 0.00 | 0.00 | 0.00 | 92 | 1019.4 |
| 20260902090630 | 23 | 211 | 0.0 | 0.0 | 0.00 | 0.00 | 0.00 | 92 | 1019.4 |
| 20260902090129 | 23 | 211 | 0.0 | 0.0 | 0.00 | 0.00 | 0.00 | 91 | 1019.4 |
| 20260902085624 | 23 | 211 | 0.0 | 0.0 | 0.00 | 0.00 | 0.00 | 91 | 1019.2 |
| 20260902085119 | 23 | 211 | 0.0 | 0.0 | 0.00 | 0.00 | 0.00 | 90 | 1019.2 |
| 20260902084615 | 23 | 211 | 0.0 | 0.0 | 0.00 | 0.00 | 0.00 | 90 | 1019.4 |
| 20260902084111 | 23 | 222 | 0.0 | 0.0 | 0.00 | 0.00 | 0.00 | 90 | 1019.4 |
| 20260902083606 | 23 | 222 | 0.0 | 0.0 | 0.00 | 0.00 | 0.00 | 90 | 1019.3 |
| 20260902083105 | 23 | 222 | 0.0 | 0.0 | 0.00 | 0.00 | 0.00 | 90 | 1019.2 |
| 20260902082601 | 23 | 224 | 0.0 | 0.0 | 0.00 | 0.00 | 0.00 | 90 | 1019.2 |
| 20260902082057 | 23 | 224 | 0.0 | 0.0 | 0.00 | 0.00 | 0.00 | 90 | 1019.2 |
| 20260902081554 | 23 | 225 | 0.0 | 0.0 | 0.00 | 0.00 | 0.00 | 89 | 1019.2 |
| 20260902081048 | 23 | 225 | 0.0 | 0.0 | 0.00 | 0.00 | 0.00 | 89 | 1019.2 |
| 20260902080543 | 23 | 225 | 0.0 | 0.0 | 0.00 | 0.00 | 0.00 | 89 | 1019.0 |
| 20260902080039 | 23 | 240 | 0.0 | 0.0 | 0.00 | 0.00 | 0.00 | 89 | 1019.0 |
| 20260902075539 | 23 | 232 | 0.0 | 0.0 | 0.00 | 0.00 | 0.00 | 88 | 1019.0 |
| 20260902075035 | 23 | 266 | 0.0 | 0.0 | 0.00 | 0.00 | 0.00 | 89 | 1019.0 |
| 20260902074530 | 23 | 237 | 0.0 | 0.0 | 0.00 | 0.00 | 0.00 | 89 | 1019.0 |
| 20260902074025 | 23 | 233 | 0.0 | 0.0 | 0.00 | 0.00 | 0.00 | 89 | 1019.0 |
| 20260902073521 | 23 | 237 | 0.0 | 1.6 | 0.00 | 0.00 | 0.00 | 90 | 1019.0 |
| 20260902073017 | 23 | 232 | 0.0 | 0.0 | 0.00 | 0.00 | 0.00 | 91 | 1019.0 |
| 20260902072512 | 23 | 232 | 0.0 | 0.0 | 0.00 | 0.00 | 0.00 | 91 | 1019.0 |
| 20260902072009 | 23 | 225 | 0.0 | 0.0 | 0.00 | 0.00 | 0.00 | 91 | 1019.1 |
| 20260902071508 | 23 | 233 | 0.0 | 0.0 | 0.00 | 0.00 | 0.00 | 91 | 1019.0 |
| 20260902071005 | 23 | 223 | 0.0 | 0.0 | 0.00 | 0.00 | 0.00 | 91 | 1019.2 |
| 20260902070500 | 23 | 224 | 0.0 | 0.0 | 0.00 | 0.00 | 0.00 | 90 | 1019.2 |
| 20260902065959 | 23 | 223 | 0.0 | 0.0 | 0.00 | 0.00 | 0.00 | 90 | 1019.2 |
| 20260902065454 | 23 | 225 | 0.0 | 0.0 | 0.00 | 0.00 | 0.00 | 90 | 1019.2 |
| 20260902064949 | 23 | 225 | 0.0 | 0.0 | 0.00 | 0.00 | 0.00 | 90 | 1019.0 |
| 20260902064445 | 23 | 231 | 0.0 | 0.0 | 0.00 | 0.00 | 0.00 | 89 | 1019.1 |
| 20260902063940 | 23 | 224 | 0.0 | 0.0 | 0.00 | 0.00 | 0.00 | 89 | 1019.1 |
| 20260902063440 | 23 | 231 | 0.0 | 0.0 | 0.00 | 0.00 | 0.00 | 89 | 1019.2 |
| 20260902062936 | 24 | 223 | 0.0 | 0.0 | 0.00 | 0.00 | 0.00 | 89 | 1019.2 |
| 20260902062434 | 24 | 220 | 0.0 | 0.0 | 0.00 | 0.00 | 0.00 | 89 | 1019.5 |
| 20260902061929 | 24 | 223 | 0.0 | 0.0 | 0.00 | 0.00 | 0.00 | 88 | 1019.3 |
| 20260902061424 | 24 | 221 | 0.0 | 0.0 | 0.00 | 0.00 | 0.00 | 87 | 1019.4 |
| 20260902060920 | 25 | 223 | 0.0 | 0.0 | 0.00 | 0.00 | 0.00 | 87 | 1019.2 |
| 20260902060416 | 25 | 245 | 0.0 | 0.0 | 0.00 | 0.00 | 0.00 | 86 | 1019.3 |
| 20260902055912 | 25 | 240 | 0.0 | 0.0 | 0.00 | 0.00 | 0.00 | 86 | 1019.2 |
| 20260902055408 | 25 | 236 | 0.0 | 0.0 | 0.00 | 0.00 | 0.00 | 87 | 1019.2 |
| 20260902054903 | 25 | 223 | 0.0 | 0.0 | 0.00 | 0.00 | 0.00 | 87 | 1019.3 |
| 20260902054358 | 25 | 235 | 0.0 | 0.0 | 0.00 | 0.00 | 0.00 | 86 | 1019.1 |
| 20260902053854 | 25 | 235 | 0.0 | 0.0 | 0.00 | 0.00 | 0.00 | 86 | 1019.1 |
| 20260902053348 | 25 | 235 | 0.0 | 0.0 | 0.00 | 0.00 | 0.00 | 86 | 1019.1 |
| 20260902052847 | 25 | 235 | 0.0 | 0.0 | 0.00 | 0.00 | 0.00 | 86 | 1019.3 |
| 20260902052337 | 25 | 235 | 0.0 | 0.0 | 0.00 | 0.00 | 0.00 | 85 | 1019.1 |
| 20260902051837 | 25 | 237 | 0.0 | 0.0 | 0.00 | 0.00 | 0.00 | 84 | 1019.1 |
| 20260902051331 | 25 | 237 | 0.0 | 0.0 | 0.00 | 0.00 | 0.00 | 84 | 1019.2 |
| 20260902050825 | 25 | 237 | 0.0 | 0.0 | 0.00 | 0.00 | 0.00 | 84 | 1019.1 |
| 20260902050325 | 25 | 237 | 0.0 | 0.0 | 0.00 | 0.00 | 0.00 | 84 | 1019.0 |
| 20260902045820 | 25 | 236 | 0.0 | 0.0 | 0.00 | 0.00 | 0.00 | 84 | 1019.1 |
| 20260902045316 | 25 | 232 | 0.0 | 0.0 | 0.00 | 0.00 | 0.00 | 84 | 1019.1 |
| 20260902044813 | 25 | 226 | 0.0 | 0.0 | 0.00 | 0.00 | 0.00 | 84 | 1019.1 |
| 20260902044308 | 25 | 236 | 0.0 | 0.0 | 0.00 | 0.00 | 0.00 | 83 | 1019.3 |
| 20260902043802 | 26 | 237 | 0.0 | 0.0 | 0.00 | 0.00 | 0.00 | 82 | 1019.2 |
| 20260902043258 | 26 | 235 | 0.0 | 0.0 | 0.00 | 0.00 | 0.00 | 82 | 1019.3 |
| 20260902042757 | 26 | 235 | 0.0 | 1.6 | 0.00 | 0.00 | 0.00 | 82 | 1019.3 |
| 20260902042252 | 26 | 237 | 0.0 | 0.0 | 0.00 | 0.00 | 0.00 | 82 | 1019.3 |
| 20260902041747 | 26 | 227 | 0.0 | 0.0 | 0.00 | 0.00 | 0.00 | 82 | 1019.3 |
| 20260902041247 | 26 | 232 | 0.0 | 0.0 | 0.00 | 0.00 | 0.00 | 82 | 1019.3 |
| 20260902040746 | 26 | 235 | 0.0 | 0.0 | 0.00 | 0.00 | 0.00 | 82 | 1019.3 |
| 20260902040242 | 26 | 233 | 0.0 | 0.0 | 0.00 | 0.00 | 0.00 | 81 | 1019.7 |
| 20260902035740 | 26 | 241 | 0.0 | 1.6 | 0.00 | 0.00 | 0.00 | 80 | 1019.2 |
| 20260902035236 | 26 | 244 | 0.0 | 0.0 | 0.00 | 0.00 | 0.00 | 80 | 1019.3 |
| 20260902034735 | 26 | 242 | 0.0 | 0.0 | 0.00 | 0.00 | 0.00 | 80 | 1019.2 |
| 20260902034230 | 26 | 235 | 0.0 | 1.6 | 0.00 | 0.00 | 0.00 | 80 | 1019.2 |
| 20260902033728 | 26 | 236 | 0.0 | 0.0 | 0.00 | 0.00 | 0.00 | 80 | 1019.2 |
| 20260902033223 | 26 | 236 | 0.0 | 0.0 | 0.00 | 0.00 | 0.00 | 81 | 1019.3 |
| 20260902032722 | 26 | 235 | 0.0 | 0.0 | 0.00 | 0.00 | 0.00 | 81 | 1019.2 |
| 20260902032217 | 26 | 233 | 0.0 | 1.6 | 0.00 | 0.00 | 0.00 | 81 | 1019.1 |
| 20260902031717 | 26 | 236 | 0.0 | 0.0 | 0.00 | 0.00 | 0.00 | 81 | 1019.1 |
| 20260902031212 | 26 | 237 | 0.0 | 0.0 | 0.00 | 0.00 | 0.00 | 82 | 1019.1 |
| 20260902030709 | 26 | 250 | 0.0 | 0.0 | 0.00 | 0.00 | 0.00 | 82 | 1019.1 |
| 20260902030208 | 26 | 236 | 0.0 | 0.0 | 0.00 | 0.00 | 0.00 | 82 | 1019.2 |
| 20260902025707 | 26 | 226 | 0.0 | 0.0 | 0.00 | 0.00 | 0.00 | 83 | 1019.2 |
| 20260902025203 | 26 | 226 | 0.0 | 0.0 | 0.00 | 0.00 | 0.00 | 83 | 1019.1 |
| 20260902024658 | 26 | 223 | 0.0 | 0.0 | 0.00 | 0.00 | 0.00 | 84 | 1019.1 |
| 20260902024153 | 26 | 223 | 0.0 | 0.0 | 0.00 | 0.00 | 0.00 | 84 | 1019.2 |
| 20260902023648 | 26 | 225 | 0.0 | 0.0 | 0.00 | 0.00 | 0.00 | 84 | 1019.1 |
| 20260902023143 | 26 | 225 | 0.0 | 0.0 | 0.00 | 0.00 | 0.00 | 84 | 1019.1 |
| 20260902022643 | 26 | 225 | 0.0 | 0.0 | 0.00 | 0.00 | 0.00 | 84 | 1019.1 |
| 20260902022139 | 26 | 225 | 0.0 | 0.0 | 0.00 | 0.00 | 0.00 | 84 | 1019.0 |
| 20260902021634 | 26 | 225 | 0.0 | 0.0 | 0.00 | 0.00 | 0.00 | 84 | 1019.0 |
| 20260902021129 | 26 | 225 | 0.0 | 0.0 | 0.00 | 0.00 | 0.00 | 84 | 1019.1 |
| 20260902020625 | 26 | 225 | 0.0 | 0.0 | 0.00 | 0.00 | 0.00 | 84 | 1019.1 |
| 20260902020120 | 26 | 225 | 0.0 | 0.0 | 0.00 | 0.00 | 0.00 | 84 | 1019.1 |
| 20260902015616 | 26 | 225 | 0.0 | 0.0 | 0.00 | 0.00 | 0.00 | 84 | 1019.0 |
| 20260902015112 | 26 | 225 | 0.0 | 0.0 | 0.00 | 0.00 | 0.00 | 84 | 1019.0 |
| 20260902014608 | 26 | 225 | 0.0 | 0.0 | 0.00 | 0.00 | 0.00 | 84 | 1018.7 |
| 20260902014103 | 26 | 224 | 0.0 | 0.0 | 0.00 | 0.00 | 0.00 | 84 | 1018.8 |
| 20260902013602 | 26 | 218 | 0.0 | 0.0 | 0.00 | 0.00 | 0.00 | 84 | 1018.8 |
| 20260902013058 | 26 | 218 | 0.0 | 0.0 | 0.00 | 0.00 | 0.00 | 84 | 1018.8 |
| 20260902012553 | 26 | 221 | 0.0 | 1.6 | 0.00 | 0.00 | 0.00 | 84 | 1018.9 |
| 20260902012048 | 26 | 220 | 0.0 | 0.0 | 0.00 | 0.00 | 0.00 | 84 | 1018.7 |
| 20260902011544 | 26 | 220 | 0.0 | 0.0 | 0.00 | 0.00 | 0.00 | 84 | 1018.6 |